owner,sensor,date,latitude,longitude,air_pressure(mBar),qcFlag 
TABS,ioos:station:TABS:X:1,2017-06-01T00:00:00Z,27.0660,-96.3383,1013.4,11111222 
TABS,ioos:station:TABS:X:1,2017-06-01T00:30:00Z,27.0660,-96.3383,1012.84,11111222 
TABS,ioos:station:TABS:X:1,2017-06-01T01:00:00Z,27.0660,-96.3383,1012.69,11111222 
TABS,ioos:station:TABS:X:1,2017-06-01T01:30:00Z,27.0660,-96.3383,1013.11,11111222 
TABS,ioos:station:TABS:X:1,2017-06-01T02:00:00Z,27.0660,-96.3383,1013.26,11111222 
TABS,ioos:station:TABS:X:1,2017-06-01T02:30:00Z,27.0660,-96.3383,1013.68,11111222 
TABS,ioos:station:TABS:X:1,2017-06-01T03:00:00Z,27.0660,-96.3383,1013.9,11111222 
TABS,ioos:station:TABS:X:1,2017-06-01T03:30:00Z,27.0660,-96.3383,1014.72,11111222 
TABS,ioos:station:TABS:X:1,2017-06-01T04:00:00Z,27.0660,-96.3383,1014.57,11111222 
TABS,ioos:station:TABS:X:1,2017-06-01T04:30:00Z,27.0660,-96.3383,1014.66,11111222 
TABS,ioos:station:TABS:X:1,2017-06-01T05:00:00Z,27.0660,-96.3383,1014.11,11111222 
TABS,ioos:station:TABS:X:1,2017-06-01T05:30:00Z,27.0660,-96.3383,1014.32,11111222 
TABS,ioos:station:TABS:X:1,2017-06-01T06:00:00Z,27.0660,-96.3383,1014.45,11111222 
TABS,ioos:station:TABS:X:1,2017-06-01T06:30:00Z,27.0660,-96.3383,1014.3,11111222 
TABS,ioos:station:TABS:X:1,2017-06-01T07:00:00Z,27.0660,-96.3383,1014.08,11111222 
TABS,ioos:station:TABS:X:1,2017-06-01T07:30:00Z,27.0660,-96.3383,1014.01,11111222 
TABS,ioos:station:TABS:X:1,2017-06-01T08:00:00Z,27.0660,-96.3383,1013.99,11111222 
TABS,ioos:station:TABS:X:1,2017-06-01T08:30:00Z,27.0660,-96.3383,1013.71,11111222 
TABS,ioos:station:TABS:X:1,2017-06-01T09:00:00Z,27.0660,-96.3383,1013.52,11111222 
TABS,ioos:station:TABS:X:1,2017-06-01T09:30:00Z,27.0660,-96.3383,1013.46,11111222 
TABS,ioos:station:TABS:X:1,2017-06-01T10:00:00Z,27.0660,-96.3383,1013.32,11111222 
TABS,ioos:station:TABS:X:1,2017-06-01T10:30:00Z,27.0660,-96.3383,1013.27,11111222 
TABS,ioos:station:TABS:X:1,2017-06-01T11:00:00Z,27.0660,-96.3383,1013.45,11111222 
TABS,ioos:station:TABS:X:1,2017-06-01T11:30:00Z,27.0660,-96.3383,1013.63,11111222 
TABS,ioos:station:TABS:X:1,2017-06-01T12:00:00Z,27.0660,-96.3383,1013.83,11111222 
TABS,ioos:station:TABS:X:1,2017-06-01T12:30:00Z,27.0660,-96.3383,1013.9,11111222 
TABS,ioos:station:TABS:X:1,2017-06-01T13:00:00Z,27.0660,-96.3383,1014.13,11111222 
TABS,ioos:station:TABS:X:1,2017-06-01T13:30:00Z,27.0660,-96.3383,1014.45,11111222 
TABS,ioos:station:TABS:X:1,2017-06-01T14:00:00Z,27.0660,-96.3383,1014.46,11111222 
TABS,ioos:station:TABS:X:1,2017-06-01T14:30:00Z,27.0660,-96.3383,1014.57,11111222 
TABS,ioos:station:TABS:X:1,2017-06-01T15:00:00Z,27.0660,-96.3383,1014.44,11111222 
TABS,ioos:station:TABS:X:1,2017-06-01T15:30:00Z,27.0660,-96.3383,1014.22,11111222 
TABS,ioos:station:TABS:X:1,2017-06-01T16:00:00Z,27.0660,-96.3383,1014.21,11111222 
TABS,ioos:station:TABS:X:1,2017-06-01T16:30:00Z,27.0660,-96.3383,1014.24,11111222 
TABS,ioos:station:TABS:X:1,2017-06-01T17:00:00Z,27.0660,-96.3383,1014.22,11111222 
TABS,ioos:station:TABS:X:1,2017-06-01T17:30:00Z,27.0660,-96.3383,1013.8,11111222 
TABS,ioos:station:TABS:X:1,2017-06-01T18:00:00Z,27.0660,-96.3383,1014.11,11111222 
TABS,ioos:station:TABS:X:1,2017-06-01T18:30:00Z,27.0660,-96.3383,1014.1,11111222 
TABS,ioos:station:TABS:X:1,2017-06-01T19:00:00Z,27.0660,-96.3383,1013.91,11111222 
TABS,ioos:station:TABS:X:1,2017-06-01T19:30:00Z,27.0660,-96.3383,1013.39,11111222 
TABS,ioos:station:TABS:X:1,2017-06-01T20:00:00Z,27.0660,-96.3383,1012.84,11111222 
TABS,ioos:station:TABS:X:1,2017-06-01T20:30:00Z,27.0660,-96.3383,1012.23,11111222 
TABS,ioos:station:TABS:X:1,2017-06-01T21:00:00Z,27.0660,-96.3383,1012.02,11111222 
TABS,ioos:station:TABS:X:1,2017-06-01T21:30:00Z,27.0660,-96.3383,1011.6,11111222 
TABS,ioos:station:TABS:X:1,2017-06-01T22:00:00Z,27.0660,-96.3383,1011.37,11111222 
TABS,ioos:station:TABS:X:1,2017-06-01T22:30:00Z,27.0660,-96.3383,1011.19,11111222 
TABS,ioos:station:TABS:X:1,2017-06-01T23:00:00Z,27.0660,-96.3383,1011.18,11111222 
TABS,ioos:station:TABS:X:1,2017-06-01T23:30:00Z,27.0660,-96.3383,1011.25,11111222 
TABS,ioos:station:TABS:X:1,2017-06-02T00:00:00Z,27.0660,-96.3383,1011.36,11111222 
TABS,ioos:station:TABS:X:1,2017-06-02T00:30:00Z,27.0660,-96.3383,1011.32,11111222 
TABS,ioos:station:TABS:X:1,2017-06-02T01:00:00Z,27.0660,-96.3383,1011.5,11111222 
TABS,ioos:station:TABS:X:1,2017-06-02T01:30:00Z,27.0660,-96.3383,1011.7,11111222 
TABS,ioos:station:TABS:X:1,2017-06-02T02:00:00Z,27.0660,-96.3383,1011.93,11111222 
TABS,ioos:station:TABS:X:1,2017-06-02T02:30:00Z,27.0660,-96.3383,1011.99,11111222 
TABS,ioos:station:TABS:X:1,2017-06-02T03:00:00Z,27.0660,-96.3383,1011.75,11111222 
TABS,ioos:station:TABS:X:1,2017-06-02T03:30:00Z,27.0660,-96.3383,1012.2,11111222 
TABS,ioos:station:TABS:X:1,2017-06-02T04:00:00Z,27.0660,-96.3383,1012.17,11111222 
TABS,ioos:station:TABS:X:1,2017-06-02T04:30:00Z,27.0660,-96.3383,1012.21,11111222 
TABS,ioos:station:TABS:X:1,2017-06-02T05:00:00Z,27.0660,-96.3383,1012.16,11111222 
TABS,ioos:station:TABS:X:1,2017-06-02T05:30:00Z,27.0660,-96.3383,1012.15,11111222 
TABS,ioos:station:TABS:X:1,2017-06-02T06:00:00Z,27.0660,-96.3383,1012.12,11111222 
TABS,ioos:station:TABS:X:1,2017-06-02T06:30:00Z,27.0660,-96.3383,1012.07,11111222 
TABS,ioos:station:TABS:X:1,2017-06-02T07:00:00Z,27.0660,-96.3383,1011.94,11111222 
TABS,ioos:station:TABS:X:1,2017-06-02T07:30:00Z,27.0660,-96.3383,1011.72,11111222 
TABS,ioos:station:TABS:X:1,2017-06-02T08:00:00Z,27.0660,-96.3383,1011.29,11111222 
TABS,ioos:station:TABS:X:1,2017-06-02T08:30:00Z,27.0660,-96.3383,1011.35,11111222 
TABS,ioos:station:TABS:X:1,2017-06-02T09:00:00Z,27.0660,-96.3383,1011.15,11111222 
TABS,ioos:station:TABS:X:1,2017-06-02T09:30:00Z,27.0660,-96.3383,1010.99,11111222 
TABS,ioos:station:TABS:X:1,2017-06-02T10:00:00Z,27.0660,-96.3383,1011.02,11111222 
TABS,ioos:station:TABS:X:1,2017-06-02T10:30:00Z,27.0660,-96.3383,1011.27,11111222 
TABS,ioos:station:TABS:X:1,2017-06-02T11:00:00Z,27.0660,-96.3383,1011.34,11111222 
TABS,ioos:station:TABS:X:1,2017-06-02T11:30:00Z,27.0660,-96.3383,1011.76,11111222 
TABS,ioos:station:TABS:X:1,2017-06-02T12:00:00Z,27.0660,-96.3383,1011.9,11111222 
TABS,ioos:station:TABS:X:1,2017-06-02T12:30:00Z,27.0660,-96.3383,1012.16,11111222 
TABS,ioos:station:TABS:X:1,2017-06-02T13:00:00Z,27.0660,-96.3383,1012.24,11111222 
TABS,ioos:station:TABS:X:1,2017-06-02T13:30:00Z,27.0660,-96.3383,1012.54,11111222 
TABS,ioos:station:TABS:X:1,2017-06-02T14:00:00Z,27.0660,-96.3383,1013.0,11111222 
TABS,ioos:station:TABS:X:1,2017-06-02T14:30:00Z,27.0660,-96.3383,1013.01,11111222 
TABS,ioos:station:TABS:X:1,2017-06-02T15:00:00Z,27.0660,-96.3383,1013.43,11111222 
TABS,ioos:station:TABS:X:1,2017-06-02T15:30:00Z,27.0660,-96.3383,1013.27,11111222 
TABS,ioos:station:TABS:X:1,2017-06-02T16:00:00Z,27.0660,-96.3383,1013.07,11111222 
TABS,ioos:station:TABS:X:1,2017-06-02T16:30:00Z,27.0660,-96.3383,1013.1,11111222 
TABS,ioos:station:TABS:X:1,2017-06-02T17:00:00Z,27.0660,-96.3383,1013.01,11111222 
TABS,ioos:station:TABS:X:1,2017-06-02T17:30:00Z,27.0660,-96.3383,1012.85,11111222 
TABS,ioos:station:TABS:X:1,2017-06-02T18:00:00Z,27.0660,-96.3383,1012.91,11111222 
TABS,ioos:station:TABS:X:1,2017-06-02T18:30:00Z,27.0660,-96.3383,1012.6,11111222 
TABS,ioos:station:TABS:X:1,2017-06-02T19:00:00Z,27.0660,-96.3383,1012.13,11111222 
TABS,ioos:station:TABS:X:1,2017-06-02T19:30:00Z,27.0660,-96.3383,1011.82,11111222 
TABS,ioos:station:TABS:X:1,2017-06-02T20:00:00Z,27.0660,-96.3383,1011.54,11111222 
TABS,ioos:station:TABS:X:1,2017-06-02T20:30:00Z,27.0660,-96.3383,1011.39,11111222 
TABS,ioos:station:TABS:X:1,2017-06-02T21:00:00Z,27.0660,-96.3383,1011.01,11111222 
TABS,ioos:station:TABS:X:1,2017-06-02T21:30:00Z,27.0660,-96.3383,1010.62,11111222 
TABS,ioos:station:TABS:X:1,2017-06-02T22:00:00Z,27.0660,-96.3383,1010.35,11111222 
TABS,ioos:station:TABS:X:1,2017-06-02T22:30:00Z,27.0660,-96.3383,1010.47,11111222 
TABS,ioos:station:TABS:X:1,2017-06-02T23:00:00Z,27.0660,-96.3383,1010.27,11111222 
TABS,ioos:station:TABS:X:1,2017-06-02T23:30:00Z,27.0660,-96.3383,1009.78,11111222 
TABS,ioos:station:TABS:X:1,2017-06-03T00:00:00Z,27.0660,-96.3383,1009.64,11111222 
TABS,ioos:station:TABS:X:1,2017-06-03T00:30:00Z,27.0660,-96.3383,1009.78,11111222 
TABS,ioos:station:TABS:X:1,2017-06-03T01:00:00Z,27.0660,-96.3383,1010.02,11111222 
TABS,ioos:station:TABS:X:1,2017-06-03T01:30:00Z,27.0660,-96.3383,1010.03,11111222 
TABS,ioos:station:TABS:X:1,2017-06-03T02:00:00Z,27.0660,-96.3383,1010.37,11111222 
TABS,ioos:station:TABS:X:1,2017-06-03T02:30:00Z,27.0660,-96.3383,1010.63,11111222 
TABS,ioos:station:TABS:X:1,2017-06-03T03:00:00Z,27.0660,-96.3383,1011.06,11111222 
TABS,ioos:station:TABS:X:1,2017-06-03T03:30:00Z,27.0660,-96.3383,1011.5,11111222 
TABS,ioos:station:TABS:X:1,2017-06-03T04:00:00Z,27.0660,-96.3383,1011.72,11111222 
TABS,ioos:station:TABS:X:1,2017-06-03T04:30:00Z,27.0660,-96.3383,1011.66,11111222 
TABS,ioos:station:TABS:X:1,2017-06-03T05:00:00Z,27.0660,-96.3383,1011.58,11111222 
TABS,ioos:station:TABS:X:1,2017-06-03T05:30:00Z,27.0660,-96.3383,1011.54,11111222 
TABS,ioos:station:TABS:X:1,2017-06-03T06:00:00Z,27.0660,-96.3383,1011.13,11111222 
TABS,ioos:station:TABS:X:1,2017-06-03T06:30:00Z,27.0660,-96.3383,1011.08,11111222 
TABS,ioos:station:TABS:X:1,2017-06-03T07:00:00Z,27.0660,-96.3383,1010.83,11111222 
TABS,ioos:station:TABS:X:1,2017-06-03T07:30:00Z,27.0660,-96.3383,1010.44,11111222 
TABS,ioos:station:TABS:X:1,2017-06-03T08:00:00Z,27.0660,-96.3383,1010.41,11111222 
TABS,ioos:station:TABS:X:1,2017-06-03T08:30:00Z,27.0660,-96.3383,1010.24,11111222 
TABS,ioos:station:TABS:X:1,2017-06-03T09:00:00Z,27.0660,-96.3383,1010.17,11111222 
TABS,ioos:station:TABS:X:1,2017-06-03T09:30:00Z,27.0660,-96.3383,1010.29,11111222 
TABS,ioos:station:TABS:X:1,2017-06-03T10:00:00Z,27.0660,-96.3383,1010.39,11111222 
TABS,ioos:station:TABS:X:1,2017-06-03T10:30:00Z,27.0660,-96.3383,1010.53,11111222 
TABS,ioos:station:TABS:X:1,2017-06-03T11:00:00Z,27.0660,-96.3383,1010.79,11111222 
TABS,ioos:station:TABS:X:1,2017-06-03T11:30:00Z,27.0660,-96.3383,1011.17,11111222 
TABS,ioos:station:TABS:X:1,2017-06-03T12:00:00Z,27.0660,-96.3383,1011.82,11111222 
TABS,ioos:station:TABS:X:1,2017-06-03T12:30:00Z,27.0660,-96.3383,1012.11,11111222 
TABS,ioos:station:TABS:X:1,2017-06-03T13:00:00Z,27.0660,-96.3383,1012.32,11111222 
TABS,ioos:station:TABS:X:1,2017-06-03T13:30:00Z,27.0660,-96.3383,1012.74,11111222 
TABS,ioos:station:TABS:X:1,2017-06-03T14:00:00Z,27.0660,-96.3383,1013.07,11111222 
TABS,ioos:station:TABS:X:1,2017-06-03T14:30:00Z,27.0660,-96.3383,1012.86,11111222 
TABS,ioos:station:TABS:X:1,2017-06-03T15:00:00Z,27.0660,-96.3383,1012.73,11111222 
TABS,ioos:station:TABS:X:1,2017-06-03T15:30:00Z,27.0660,-96.3383,1012.69,11111222 
TABS,ioos:station:TABS:X:1,2017-06-03T16:00:00Z,27.0660,-96.3383,1012.53,11111222 
TABS,ioos:station:TABS:X:1,2017-06-03T16:30:00Z,27.0660,-96.3383,1012.41,11111222 
TABS,ioos:station:TABS:X:1,2017-06-03T17:00:00Z,27.0660,-96.3383,1012.01,11111222 
TABS,ioos:station:TABS:X:1,2017-06-03T17:30:00Z,27.0660,-96.3383,1011.9,11111222 
TABS,ioos:station:TABS:X:1,2017-06-03T18:00:00Z,27.0660,-96.3383,1011.76,11111222 
TABS,ioos:station:TABS:X:1,2017-06-03T18:30:00Z,27.0660,-96.3383,1011.56,11111222 
TABS,ioos:station:TABS:X:1,2017-06-03T19:00:00Z,27.0660,-96.3383,1011.56,11111222 
TABS,ioos:station:TABS:X:1,2017-06-03T19:30:00Z,27.0660,-96.3383,1011.22,11111222 
TABS,ioos:station:TABS:X:1,2017-06-03T20:00:00Z,27.0660,-96.3383,1011.27,11111222 
TABS,ioos:station:TABS:X:1,2017-06-03T20:30:00Z,27.0660,-96.3383,1011.12,11111222 
TABS,ioos:station:TABS:X:1,2017-06-03T21:00:00Z,27.0660,-96.3383,1010.83,11111222 
TABS,ioos:station:TABS:X:1,2017-06-03T21:30:00Z,27.0660,-96.3383,1010.64,11111222 
TABS,ioos:station:TABS:X:1,2017-06-03T22:00:00Z,27.0660,-96.3383,1010.49,11111222 
TABS,ioos:station:TABS:X:1,2017-06-03T22:30:00Z,27.0660,-96.3383,1010.23,11111222 
TABS,ioos:station:TABS:X:1,2017-06-03T23:00:00Z,27.0660,-96.3383,1010.44,11111222 
TABS,ioos:station:TABS:X:1,2017-06-03T23:30:00Z,27.0660,-96.3383,1010.76,11111222 
TABS,ioos:station:TABS:X:1,2017-06-04T00:00:00Z,27.0660,-96.3383,1010.76,11111222 
TABS,ioos:station:TABS:X:1,2017-06-04T00:30:00Z,27.0660,-96.3383,1010.15,11111222 
TABS,ioos:station:TABS:X:1,2017-06-04T01:00:00Z,27.0660,-96.3383,1009.55,11111222 
TABS,ioos:station:TABS:X:1,2017-06-04T01:30:00Z,27.0660,-96.3383,1009.4,11111222 
TABS,ioos:station:TABS:X:1,2017-06-04T02:00:00Z,27.0660,-96.3383,1009.77,11111222 
TABS,ioos:station:TABS:X:1,2017-06-04T02:30:00Z,27.0660,-96.3383,1009.56,11111222 
TABS,ioos:station:TABS:X:1,2017-06-04T03:00:00Z,27.0660,-96.3383,1009.71,11111222 
TABS,ioos:station:TABS:X:1,2017-06-04T03:30:00Z,27.0660,-96.3383,1010.25,11111222 
TABS,ioos:station:TABS:X:1,2017-06-04T04:00:00Z,27.0660,-96.3383,1010.7,11111222 
TABS,ioos:station:TABS:X:1,2017-06-04T04:30:00Z,27.0660,-96.3383,1011.35,11111222 
TABS,ioos:station:TABS:X:1,2017-06-04T05:00:00Z,27.0660,-96.3383,1011.34,11111222 
TABS,ioos:station:TABS:X:1,2017-06-04T05:30:00Z,27.0660,-96.3383,1011.15,11111222 
TABS,ioos:station:TABS:X:1,2017-06-04T06:00:00Z,27.0660,-96.3383,1010.86,11111222 
TABS,ioos:station:TABS:X:1,2017-06-04T06:30:00Z,27.0660,-96.3383,1010.89,11111222 
TABS,ioos:station:TABS:X:1,2017-06-04T07:00:00Z,27.0660,-96.3383,1010.54,11111222 
TABS,ioos:station:TABS:X:1,2017-06-04T07:30:00Z,27.0660,-96.3383,1010.42,11111222 
TABS,ioos:station:TABS:X:1,2017-06-04T08:00:00Z,27.0660,-96.3383,1010.32,11111222 
TABS,ioos:station:TABS:X:1,2017-06-04T08:30:00Z,27.0660,-96.3383,1010.37,11111222 
TABS,ioos:station:TABS:X:1,2017-06-04T09:00:00Z,27.0660,-96.3383,1009.94,11111222 
TABS,ioos:station:TABS:X:1,2017-06-04T09:30:00Z,27.0660,-96.3383,1010.09,11111222 
TABS,ioos:station:TABS:X:1,2017-06-04T10:00:00Z,27.0660,-96.3383,1009.97,11111222 
TABS,ioos:station:TABS:X:1,2017-06-04T10:30:00Z,27.0660,-96.3383,1009.61,11111222 
TABS,ioos:station:TABS:X:1,2017-06-04T11:00:00Z,27.0660,-96.3383,1009.63,11111222 
TABS,ioos:station:TABS:X:1,2017-06-04T11:30:00Z,27.0660,-96.3383,1009.81,11111222 
TABS,ioos:station:TABS:X:1,2017-06-04T12:00:00Z,27.0660,-96.3383,1010.23,11111222 
TABS,ioos:station:TABS:X:1,2017-06-04T12:30:00Z,27.0660,-96.3383,1010.47,11111222 
TABS,ioos:station:TABS:X:1,2017-06-04T13:00:00Z,27.0660,-96.3383,1010.46,11111222 
TABS,ioos:station:TABS:X:1,2017-06-04T13:30:00Z,27.0660,-96.3383,1010.79,11111222 
TABS,ioos:station:TABS:X:1,2017-06-04T14:00:00Z,27.0660,-96.3383,1010.81,11111222 
TABS,ioos:station:TABS:X:1,2017-06-04T14:30:00Z,27.0660,-96.3383,1010.79,11111222 
TABS,ioos:station:TABS:X:1,2017-06-04T15:00:00Z,27.0660,-96.3383,1010.71,11111222 
TABS,ioos:station:TABS:X:1,2017-06-04T15:30:00Z,27.0660,-96.3383,1010.57,11111222 
TABS,ioos:station:TABS:X:1,2017-06-04T16:00:00Z,27.0660,-96.3383,1010.43,11111222 
TABS,ioos:station:TABS:X:1,2017-06-04T16:30:00Z,27.0660,-96.3383,1010.51,11111222 
TABS,ioos:station:TABS:X:1,2017-06-04T17:00:00Z,27.0660,-96.3383,1010.21,11111222 
TABS,ioos:station:TABS:X:1,2017-06-04T17:30:00Z,27.0660,-96.3383,1010.37,11111222 
TABS,ioos:station:TABS:X:1,2017-06-04T18:00:00Z,27.0660,-96.3383,1010.44,11111222 
TABS,ioos:station:TABS:X:1,2017-06-04T18:30:00Z,27.0660,-96.3383,1010.1,11111222 
TABS,ioos:station:TABS:X:1,2017-06-04T19:00:00Z,27.0660,-96.3383,1009.67,11111222 
TABS,ioos:station:TABS:X:1,2017-06-04T19:30:00Z,27.0660,-96.3383,1009.42,11111222 
TABS,ioos:station:TABS:X:1,2017-06-04T20:00:00Z,27.0660,-96.3383,1009.25,11111222 
TABS,ioos:station:TABS:X:1,2017-06-04T20:30:00Z,27.0660,-96.3383,1008.62,11111222 
TABS,ioos:station:TABS:X:1,2017-06-04T21:00:00Z,27.0660,-96.3383,1008.16,11111222 
TABS,ioos:station:TABS:X:1,2017-06-04T21:30:00Z,27.0660,-96.3383,1008.1,11111222 
TABS,ioos:station:TABS:X:1,2017-06-04T22:00:00Z,27.0660,-96.3383,1008.19,11111222 
TABS,ioos:station:TABS:X:1,2017-06-04T22:30:00Z,27.0660,-96.3383,1007.94,11111222 
TABS,ioos:station:TABS:X:1,2017-06-04T23:00:00Z,27.0660,-96.3383,1007.7,11111222 
TABS,ioos:station:TABS:X:1,2017-06-04T23:30:00Z,27.0660,-96.3383,1007.46,11111222 
TABS,ioos:station:TABS:X:1,2017-06-05T00:00:00Z,27.0660,-96.3383,1007.34,11111222 
TABS,ioos:station:TABS:X:1,2017-06-05T00:30:00Z,27.0660,-96.3383,1008.13,11111222 
TABS,ioos:station:TABS:X:1,2017-06-05T01:00:00Z,27.0660,-96.3383,1007.85,11111222 
TABS,ioos:station:TABS:X:1,2017-06-05T01:30:00Z,27.0660,-96.3383,1008.06,11111222 
TABS,ioos:station:TABS:X:1,2017-06-05T02:00:00Z,27.0660,-96.3383,1007.61,11111222 
TABS,ioos:station:TABS:X:1,2017-06-05T02:30:00Z,27.0660,-96.3383,1008.33,11111222 
TABS,ioos:station:TABS:X:1,2017-06-05T03:00:00Z,27.0660,-96.3383,1008.52,11111222 
TABS,ioos:station:TABS:X:1,2017-06-05T03:30:00Z,27.0660,-96.3383,1008.94,11111222 
TABS,ioos:station:TABS:X:1,2017-06-05T04:00:00Z,27.0660,-96.3383,1009.37,11111222 
TABS,ioos:station:TABS:X:1,2017-06-05T04:30:00Z,27.0660,-96.3383,1009.08,11111222 
TABS,ioos:station:TABS:X:1,2017-06-05T05:00:00Z,27.0660,-96.3383,1008.91,11111222 
TABS,ioos:station:TABS:X:1,2017-06-05T05:30:00Z,27.0660,-96.3383,1008.65,11111222 
TABS,ioos:station:TABS:X:1,2017-06-05T06:00:00Z,27.0660,-96.3383,1007.59,11111222 
TABS,ioos:station:TABS:X:1,2017-06-05T06:30:00Z,27.0660,-96.3383,1008.5,11111222 
TABS,ioos:station:TABS:X:1,2017-06-05T07:00:00Z,27.0660,-96.3383,1007.08,11111222 
TABS,ioos:station:TABS:X:1,2017-06-05T07:30:00Z,27.0660,-96.3383,1007.19,11111222 
TABS,ioos:station:TABS:X:1,2017-06-05T08:00:00Z,27.0660,-96.3383,1006.78,11111222 
TABS,ioos:station:TABS:X:1,2017-06-05T08:30:00Z,27.0660,-96.3383,1006.83,11111222 
TABS,ioos:station:TABS:X:1,2017-06-05T09:00:00Z,27.0660,-96.3383,1006.86,11111222 
TABS,ioos:station:TABS:X:1,2017-06-05T09:30:00Z,27.0660,-96.3383,1007.06,11111222 
TABS,ioos:station:TABS:X:1,2017-06-05T10:00:00Z,27.0660,-96.3383,1006.69,11111222 
TABS,ioos:station:TABS:X:1,2017-06-05T10:30:00Z,27.0660,-96.3383,1006.15,11111222 
TABS,ioos:station:TABS:X:1,2017-06-05T11:00:00Z,27.0660,-96.3383,1006.39,11111222 
TABS,ioos:station:TABS:X:1,2017-06-05T11:30:00Z,27.0660,-96.3383,1006.73,11111222 
TABS,ioos:station:TABS:X:1,2017-06-05T12:00:00Z,27.0660,-96.3383,1006.64,11111222 
TABS,ioos:station:TABS:X:1,2017-06-05T12:30:00Z,27.0660,-96.3383,1006.79,11111222 
TABS,ioos:station:TABS:X:1,2017-06-05T13:00:00Z,27.0660,-96.3383,1006.92,11111222 
TABS,ioos:station:TABS:X:1,2017-06-05T13:30:00Z,27.0660,-96.3383,1007.08,11111222 
TABS,ioos:station:TABS:X:1,2017-06-05T14:00:00Z,27.0660,-96.3383,1007.02,11111222 
TABS,ioos:station:TABS:X:1,2017-06-05T14:30:00Z,27.0660,-96.3383,1007.12,11111222 
TABS,ioos:station:TABS:X:1,2017-06-05T15:00:00Z,27.0660,-96.3383,1007.07,11111222 
TABS,ioos:station:TABS:X:1,2017-06-05T15:30:00Z,27.0660,-96.3383,1006.8,11111222 
TABS,ioos:station:TABS:X:1,2017-06-05T16:00:00Z,27.0660,-96.3383,1006.81,11111222 
TABS,ioos:station:TABS:X:1,2017-06-05T16:30:00Z,27.0660,-96.3383,1007.46,11111222 
TABS,ioos:station:TABS:X:1,2017-06-05T17:00:00Z,27.0660,-96.3383,1007.31,11111222 
TABS,ioos:station:TABS:X:1,2017-06-05T17:30:00Z,27.0660,-96.3383,1007.46,11111222 
TABS,ioos:station:TABS:X:1,2017-06-05T18:00:00Z,27.0660,-96.3383,1006.98,11111222 
TABS,ioos:station:TABS:X:1,2017-06-05T18:30:00Z,27.0660,-96.3383,1006.74,11111222 
TABS,ioos:station:TABS:X:1,2017-06-05T19:00:00Z,27.0660,-96.3383,1006.52,11111222 
TABS,ioos:station:TABS:X:1,2017-06-05T19:30:00Z,27.0660,-96.3383,1006.07,11111222 
TABS,ioos:station:TABS:X:1,2017-06-05T20:00:00Z,27.0660,-96.3383,1005.63,11111222 
TABS,ioos:station:TABS:X:1,2017-06-05T20:30:00Z,27.0660,-96.3383,1005.44,11111222 
TABS,ioos:station:TABS:X:1,2017-06-05T21:00:00Z,27.0660,-96.3383,1005.39,11111222 
TABS,ioos:station:TABS:X:1,2017-06-05T21:30:00Z,27.0660,-96.3383,1005.05,11111222 
TABS,ioos:station:TABS:X:1,2017-06-05T22:00:00Z,27.0660,-96.3383,1005.04,11111222 
TABS,ioos:station:TABS:X:1,2017-06-05T22:30:00Z,27.0660,-96.3383,1004.98,11111222 
TABS,ioos:station:TABS:X:1,2017-06-05T23:00:00Z,27.0660,-96.3383,1004.86,11111222 
TABS,ioos:station:TABS:X:1,2017-06-05T23:30:00Z,27.0660,-96.3383,1005.36,11111222 
TABS,ioos:station:TABS:X:1,2017-06-06T00:00:00Z,27.0660,-96.3383,1005.01,11111222 
TABS,ioos:station:TABS:X:1,2017-06-06T00:30:00Z,27.0660,-96.3383,1005.17,11111222 
TABS,ioos:station:TABS:X:1,2017-06-06T01:00:00Z,27.0660,-96.3383,1005.38,11111222 
TABS,ioos:station:TABS:X:1,2017-06-06T01:30:00Z,27.0660,-96.3383,1006.28,11111222 
TABS,ioos:station:TABS:X:1,2017-06-06T02:00:00Z,27.0660,-96.3383,1006.46,11111222 
TABS,ioos:station:TABS:X:1,2017-06-06T02:30:00Z,27.0660,-96.3383,1006.42,11111222 
TABS,ioos:station:TABS:X:1,2017-06-06T03:00:00Z,27.0660,-96.3383,1006.53,11111222 
TABS,ioos:station:TABS:X:1,2017-06-06T03:30:00Z,27.0660,-96.3383,1007.06,11111222 
TABS,ioos:station:TABS:X:1,2017-06-06T04:00:00Z,27.0660,-96.3383,1007.03,11111222 
TABS,ioos:station:TABS:X:1,2017-06-06T04:30:00Z,27.0660,-96.3383,1007.22,11111222 
TABS,ioos:station:TABS:X:1,2017-06-06T05:00:00Z,27.0660,-96.3383,1007.5,11111222 
TABS,ioos:station:TABS:X:1,2017-06-06T05:30:00Z,27.0660,-96.3383,1007.86,11111222 
TABS,ioos:station:TABS:X:1,2017-06-06T06:00:00Z,27.0660,-96.3383,1007.63,11111222 
TABS,ioos:station:TABS:X:1,2017-06-06T06:30:00Z,27.0660,-96.3383,1007.67,11111222 
TABS,ioos:station:TABS:X:1,2017-06-06T07:00:00Z,27.0660,-96.3383,1007.64,11111222 
TABS,ioos:station:TABS:X:1,2017-06-06T07:30:00Z,27.0660,-96.3383,1007.44,11111222 
TABS,ioos:station:TABS:X:1,2017-06-06T08:00:00Z,27.0660,-96.3383,1007.18,11111222 
TABS,ioos:station:TABS:X:1,2017-06-06T08:30:00Z,27.0660,-96.3383,1007.3,11111222 
TABS,ioos:station:TABS:X:1,2017-06-06T09:00:00Z,27.0660,-96.3383,1007.28,11111222 
TABS,ioos:station:TABS:X:1,2017-06-06T09:30:00Z,27.0660,-96.3383,1007.18,11111222 
TABS,ioos:station:TABS:X:1,2017-06-06T10:00:00Z,27.0660,-96.3383,1007.14,11111222 
TABS,ioos:station:TABS:X:1,2017-06-06T10:30:00Z,27.0660,-96.3383,1007.62,11111222 
TABS,ioos:station:TABS:X:1,2017-06-06T11:00:00Z,27.0660,-96.3383,1007.75,11111222 
TABS,ioos:station:TABS:X:1,2017-06-06T11:30:00Z,27.0660,-96.3383,1008.15,11111222 
TABS,ioos:station:TABS:X:1,2017-06-06T12:00:00Z,27.0660,-96.3383,1008.04,11111222 
TABS,ioos:station:TABS:X:1,2017-06-06T12:30:00Z,27.0660,-96.3383,1009.36,11111222 
TABS,ioos:station:TABS:X:1,2017-06-06T13:00:00Z,27.0660,-96.3383,1009.05,11111222 
TABS,ioos:station:TABS:X:1,2017-06-06T13:30:00Z,27.0660,-96.3383,1008.84,11111222 
TABS,ioos:station:TABS:X:1,2017-06-06T14:00:00Z,27.0660,-96.3383,1008.88,11111222 
TABS,ioos:station:TABS:X:1,2017-06-06T14:30:00Z,27.0660,-96.3383,1009.2,11111222 
TABS,ioos:station:TABS:X:1,2017-06-06T15:00:00Z,27.0660,-96.3383,1009.08,11111222 
TABS,ioos:station:TABS:X:1,2017-06-06T15:30:00Z,27.0660,-96.3383,1008.92,11111222 
TABS,ioos:station:TABS:X:1,2017-06-06T16:00:00Z,27.0660,-96.3383,1008.87,11111222 
TABS,ioos:station:TABS:X:1,2017-06-06T16:30:00Z,27.0660,-96.3383,1009.11,11111222 
TABS,ioos:station:TABS:X:1,2017-06-06T17:00:00Z,27.0660,-96.3383,1009.09,11111222 
TABS,ioos:station:TABS:X:1,2017-06-06T17:30:00Z,27.0660,-96.3383,1008.94,11111222 
TABS,ioos:station:TABS:X:1,2017-06-06T18:00:00Z,27.0660,-96.3383,1008.88,11111222 
TABS,ioos:station:TABS:X:1,2017-06-06T18:30:00Z,27.0660,-96.3383,1008.73,11111222 
TABS,ioos:station:TABS:X:1,2017-06-06T19:00:00Z,27.0660,-96.3383,1008.7,11111222 
TABS,ioos:station:TABS:X:1,2017-06-06T19:30:00Z,27.0660,-96.3383,1008.67,11111222 
TABS,ioos:station:TABS:X:1,2017-06-06T20:00:00Z,27.0660,-96.3383,1008.6,11111222 
TABS,ioos:station:TABS:X:1,2017-06-06T20:30:00Z,27.0660,-96.3383,1008.39,11111222 
TABS,ioos:station:TABS:X:1,2017-06-06T21:00:00Z,27.0660,-96.3383,1008.18,11111222 
TABS,ioos:station:TABS:X:1,2017-06-06T21:30:00Z,27.0660,-96.3383,1008.11,11111222 
TABS,ioos:station:TABS:X:1,2017-06-06T22:00:00Z,27.0660,-96.3383,1007.8,11111222 
TABS,ioos:station:TABS:X:1,2017-06-06T22:30:00Z,27.0660,-96.3383,1007.58,11111222 
TABS,ioos:station:TABS:X:1,2017-06-06T23:00:00Z,27.0660,-96.3383,1007.52,11111222 
TABS,ioos:station:TABS:X:1,2017-06-06T23:30:00Z,27.0660,-96.3383,1007.44,11111222 